Regional Weather Roundup
Issued by NWS Charleston, WV

Current Version |  Previous Version |  Text Only |  Print | Product List |  Glossary On
Versions: 1 2 3 4 5 6 7 8 9 10 11 12 13 14 15 16 17 18 19 20 21 22 23 24 25 26 27 28
632
ASUS41 KRLX 242310
RWRRLX
Regional Weather Roundup
National Weather Service Charleston WV
700 PM EDT MON JUN 24 2024

Note: "fair" indicates few or no clouds below 12,000 feet with no
significant weather and/or obstructions to visibility.

WVZ003-250000-
Northern Panhandle of West Virginia

CITY           SKY/WX    TMP DP  RH WIND       PRES   REMARKS
WHEELING       SUNNY     80  54  40 NW8       29.97S
$$

WVZ009-250000-
Northwest West Virginia

CITY           SKY/WX    TMP DP  RH WIND       PRES   REMARKS
PARKERSBURG    MOSUNNY   83  52  34 N6        29.97R
$$

WVZ006-250000-
Western West Virginia

CITY           SKY/WX    TMP DP  RH WIND       PRES   REMARKS
HUNTINGTON     SUNNY     84  59  42 NW6       29.96R
POINT PLEASANT NOT AVBL
$$

WVZ015-250000-
West Central West Virginia

CITY           SKY/WX    TMP DP  RH WIND       PRES   REMARKS
CHARLESTON     MOSUNNY   84  57  39 N6        29.95S
$$

WVZ509-031-039-250000-
North Central West Virginia

CITY           SKY/WX    TMP DP  RH WIND       PRES   REMARKS
MORGANTOWN     MOSUNNY   80  56  43 NW9       29.97S
CLARKSBURG     MOSUNNY   79  57  46 W8        29.97R
BUCKHANNON     SUNNY     82  59  44 VRB5      29.99S
SUTTON         MOSUNNY   79  50  36 CALM      29.97S
$$

WVZ515-516-025-034-042-507-250000-
Southern West Virginia

CITY           SKY/WX    TMP DP  RH WIND       PRES   REMARKS
BECKLEY        SUNNY     75  57  53 N10G17    30.03R
LOGAN          NOT AVBL
PINEVILLE      SUNNY     81  60  47 MISG      30.04R
BLUEFIELD      SUNNY     74  53  48 N9        30.03S
LEWISBURG      SUNNY     75  57  53 N13       30.00R
$$

WVZ525-526-250000-
Northern Mountains of West Virginia

CITY           SKY/WX    TMP DP  RH WIND       PRES   REMARKS
ELKINS         MOSUNNY   77  55  46 NW9       30.00S
$$

WVZ502-504-052-250000-
Eastern Panhandle of West Virginia

CITY           SKY/WX    TMP DP  RH WIND       PRES   REMARKS
PETERSBURG     SUNNY     80  56  43 N7        29.92S
CUMBERLAND     PTSUNNY   82  53  35 NW12G20   29.95R
MARTINSBURG    SUNNY     82  51  34 NW12      29.86S
$$

OHZ075-083-KYZ101-250000-
Southeast Ohio/Northeast Kentucky

CITY           SKY/WX    TMP DP  RH WIND       PRES   REMARKS
ATHENS         SUNNY     83  56  38 NW5       29.97S
JACKSON        SUNNY     81  57  44 CALM      29.98S
ASHLAND        MOSUNNY   82  62  50 VRB3      29.96S
$$